Regional Weather Roundup
Issued by NWS Northern Indiana

Home | Current Version | Previous Version | Text Only | Print | Product List | Glossary Off
Versions: 1 2 3 4 5 6 7 8 9 10 11 12 13 14 15 16 17 18 19 20 21 22 23 24 25 26 27 28 29 30 31 32 33 34 35 36 37 38 39 40 41 42 43 44 45 46 47 48 49 50

088
ASUS43 KIWX 261910
RWRIWX

KIWX WEATHER ROUNDUP
NATIONAL WEATHER SERVICE NORTHERN INDIANA
300 PM EDT THU APR 26 2018

NOTE: "FAIR" INDICATES FEW OR NO CLOUDS BELOW 12,000 FEET WITH NO
SIGNIFICANT WEATHER AND/OR OBSTRUCTIONS TO VISIBILITY.

* THESE STATIONS ARE NOT UNDER NWS QUALITY CONTROL. THEY ALSO MAY NOT
  REPORT WEATHER SUCH AS PRECIPITATION OR FOG.

INZ001>027-262000-
NORTHERN INDIANA

CITY           SKY/WX    TMP DP  RH WIND       PRES   REMARKS
GARY*          MOSUNNY   59  21  23 N10       29.94F
VALPARAISO     FAIR      63  32  31 W6        29.91
MICHIGAN CITY* FAIR      55  34  44 NW8       29.94S
LAPORTE*       FAIR      61  31  32 W5        29.92F
KNOX*          FAIR      61  32  33 N5        29.90F
SOUTH BEND     FAIR      60  32  34 VRB5      29.92F
ELKHART*       FAIR      63  32  31 CALM      29.91F
GOSHEN         FAIR      60  38  43 S8        29.90F
MONTICELLO*    FAIR      60  31  33 CALM      29.90F
LOGANSPORT*    FAIR      61  34  36 NW6       29.91F
ROCHESTER*     FAIR      63  37  39 S5        29.91F
WARSAW*        FAIR      59  37  44 W6        29.91F
AUBURN*        FAIR      59  37  44 SW3       29.91F
FORT WAYNE     FAIR      62  40  44 CALM      29.91F
HUNTINGTON*    FAIR      60  36  40 CALM      29.89F
PERU/GRISSOM   FAIR      62  37  40 CALM      29.89
MARION*        FAIR      60  37  41 CALM      29.90F

$$
INZ028>050-262000-
CENTRAL INDIANA

CITY           SKY/WX    TMP DP  RH WIND       PRES   REMARKS
LAFAYETTE      FAIR      62  37  39 N8        29.90F
KOKOMO*        FAIR      61  36  39 CALM      29.91F
MUNCIE*        FAIR      64  38  38 CALM      29.89F
INDIANAPOLIS   FAIR      62  31  31 VRB3      29.89F

$$
MIZ043>046-050>051-056>058-064>065-071>073-077>080-262000-
SOUTHWEST LOWER MICHIGAN

CITY           SKY/WX    TMP DP  RH WIND       PRES   REMARKS
BATTLE CREEK   FAIR      61  30  31 W8        29.90F
BENTON HARBOR  FAIR      51  34  52 W9        29.94F
COLDWATER*     FAIR      60  29  30 SW3       29.91F
HILLSDALE*     FAIR      57  34  41 S5        29.91S
HOLLAND        FAIR      56  32  40 W14       29.94S
GRAND RAPIDS   PTSUNNY   61  29  29 SW7       29.90F
KALAMAZOO      FAIR      62  28  27 MISG      29.91F
STURGIS*       FAIR      61  36  40 CALM      29.91F
THREE RIVERS*  FAIR      61  31  31 CALM      29.91F

$$
OHZ001>008-015>018-024>025-262000-
NORTHWEST OHIO

CITY           SKY/WX    TMP DP  RH WIND       PRES   REMARKS
WAUSEON*       FAIR      61  34  36 NW7G13    29.91F
DEFIANCE       FAIR      59  39  47 VRB6      29.91
FINDLAY        FAIR      61  40  45 CALM      29.90F
TOLEDO EXPRESS FAIR      59  36  42 CALM      29.90F
TOLEDO METCALF FAIR      59  36  42 MISG      29.92F
LIMA           FAIR      61  43  51 CALM      29.89F

$$
AND FOR LAKE MICHIGAN COASTAL AND OPEN LAKE BUOY OBSERVATIONS

STATION/POSITION TEMP    WIND        PRES    VSBY  WAVE
                 AIR SEA DIR/SP/G                  HT/PER
                 (F)     (DEG/KT/KT) (MB)    (MI)  (FT/S)
CALUMET HARBOR    47      50/  7/  7 1013.2F
MICHIGAN CITY     46     350/  6/  6   N/A
BURNS HARBOR      42      20/  6/  7 1014.6
SAINT JOSEPH      45     340/  3/  4 1014.9
4 MI NW BRIDGMAN  42 44  350/  6/  8 1014.9          1/ 2

$$
&&




USA.gov is the U.S. government's official web portal to all federal, state and local government web resources and services.